#timestamp,LO_Frequency,Hit,StdDev 
1583791215.3,286047001.8,N
1583791235.2,286046999.9,N
1583791255.0,286046999.4,N
1583791255.9,286046999.4,N
1583791275.8,286046998.2,N
1583791295.6,286046999.1,N
1583791315.4,286047000.8,N
1583791335.3,286046999.5,N
1583791355.1,286046999.5,N
1583791375.8,286046999.1,N
1583791395.7,286046997.1,N
1583791415.5,286046996.6,N
1583791435.4,286046999.4,N
1583791455.2,286046998.9,N
1583791475.0,286047000.3,N
1583791475.9,286047000.3,N
1583791495.8,286047001.0,N
1583791515.6,286047001.2,N
1583791535.5,286047000.5,N
1583791555.3,286047000.0,N
1583791575.1,286046998.8,N
1583791595.9,286047002.7,N
1583791615.7,286047003.9,N
1583791635.5,286047002.7,N
1583791655.4,286047000.4,N
1583791675.2,286046998.7,N
1583791695.1,286046998.9,N
1583791696.0,286046998.9,N
1583791715.8,286046998.7,N
1583791735.6,286047001.1,N
1583791755.5,286047000.8,N
1583791775.3,286047001.2,N
1583791795.2,286046998.2,N
1583791815.9,286046998.5,N
1583791835.7,286047000.6,N
1583791855.6,286047002.2,N
1583791875.4,286047001.4,N
1583791895.2,286047002.2,N
1583791915.1,286047001.5,N
1583791916.0,286047001.5,N
1583791935.8,286047004.4,N
1583791955.7,286047001.9,N
1583791975.5,286047002.0,N
1583791995.3,286047003.6,N
1583792015.2,286047003.0,N
1583792035.0,286047004.4,N
1583792035.9,286047004.4,N
1583792055.8,286047001.3,N
1583792075.6,286047003.1,N
1583792095.4,286047003.6,N
1583792115.3,286047005.7,N
1583792135.1,286047005.7,N
1583792155.9,286047005.0,N
1583792175.7,286047005.4,N
1583792195.5,286047005.9,N
1583792215.4,286047006.9,N
1583792235.2,286047005.7,N
1583792255.0,286047003.5,N
1583792256.0,286047003.5,N
1583792275.8,286047004.0,N
1583792295.6,286047004.2,N
1583792315.5,286047003.6,N
1583792335.3,286047005.6,N
1583792355.1,286047005.4,N
1583792375.9,286047003.4,N
1583792395.7,286047005.5,Y
1583792415.6,286047000.5,P
1583792435.4,286047001.7,N
1583792455.2,286047004.4,P
1583792475.1,286047005.5,Y
1583792476.0,286047005.5,P
1583792495.8,286047001.0,N
1583792515.7,286046998.1,N
1583792535.5,286047002.8,N
1583792555.3,286047002.6,N
1583792575.2,286047000.2,N
1583792595.0,286046999.9,N
1583792595.9,286046999.9,N
1583792615.8,286047002.4,N
1583792635.6,286046999.3,N
1583792655.4,286046999.3,N
1583792675.3,286046996.5,N
1583792695.1,286046997.4,N
1583792715.8,286046996.1,N
1583792735.7,286046995.0,N
1583792755.5,286046997.6,N
1583792775.4,286046997.1,N
1583792795.2,286046998.7,N
1583792815.0,286047002.3,N
1583792815.9,286047002.3,N
1583792835.8,286046999.8,N
1583792855.6,286047000.4,N
1583792875.5,286047000.8,N
1583792895.3,286047001.8,N
1583792915.1,286046999.9,N
1583792935.9,286047000.1,N
1583792955.7,286046998.8,N
1583792975.5,286046999.1,N
1583792995.4,286046998.1,N
1583793015.2,286046999.7,N
1583793035.1,286047000.5,N
1583793036.0,286047000.5,N
1583793055.8,286047002.0,N
1583793075.6,286047001.3,N
1583793095.5,286047004.0,N
1583793115.3,286047001.7,N
1583793135.1,286047004.4,N
1583793155.9,286047001.3,N
1583793175.7,286047003.6,N
1583793195.6,286047002.8,N
1583793215.4,286047001.4,N
1583793235.2,286047001.5,N
1583793255.1,286047002.8,N
1583793256.0,286047002.8,N
1583793275.8,286046998.2,N
1583793295.7,286047000.0,N
1583793315.5,286047000.1,N
1583793335.3,286047002.6,N
1583793355.2,286047003.9,N
1583793375.0,286047001.8,N
1583793375.9,286047001.8,N
1583793395.8,286046998.4,N
1583793415.6,286046998.2,N
1583793435.4,286047000.5,N
1583793455.3,286047000.0,N
1583793475.1,286047001.9,N
1583793495.8,286047001.8,N
1583793515.7,286046999.7,N
1583793535.5,286046998.6,N
1583793555.4,286046998.6,N
1583793575.2,286046998.3,N
1583793595.0,286047000.7,N
1583793595.9,286047000.7,N
1583793615.8,286047003.2,N
1583793635.6,286047003.6,N
1583793655.5,286047004.2,N
1583793675.3,286047004.3,N
1583793695.1,286047004.3,N
1583793715.9,286047002.1,N
1583793735.7,286047001.7,N
1583793755.5,286047001.2,N
1583793775.4,286046998.1,N
1583793795.2,286047000.4,N
1583793815.1,286046998.9,N
1583793816.0,286046998.9,N
1583793835.8,286047002.5,N
1583793855.6,286047000.9,N
1583793875.5,286046998.4,N
1583793895.3,286046998.3,N
1583793915.2,286046998.3,N
1583793935.9,286047001.2,N
1583793955.7,286047001.0,N
1583793975.6,286047000.7,N
1583793995.4,286046999.7,N
1583794015.2,286047002.2,N
1583794035.1,286047002.3,N
1583794036.0,286047002.3,N
1583794055.8,286047002.3,N
1583794075.7,286047000.3,N
1583794095.5,286047000.2,N
1583794115.3,286047000.1,N
1583794135.2,286047000.9,N
1583794155.0,286047000.6,N
1583794155.9,286047000.6,N
1583794175.8,286046998.5,N
1583794195.6,286047001.1,N
1583794215.4,286047000.2,N
1583794235.3,286047002.5,N
1583794255.1,286047004.4,Y
1583794275.9,286047002.7,P
1583794295.7,286047002.2,N
1583794315.5,286046998.6,N
1583794335.4,286046998.2,N
1583794355.2,286046999.5,N
1583794375.1,286046997.1,N
1583794376.0,286046997.1,N
1583794395.8,286046998.9,N
1583794415.6,286047000.8,N
1583794435.5,286047002.8,N
1583794455.3,286047002.7,N
1583794475.2,286047002.3,N
1583794495.9,286047002.2,N
1583794515.7,286047004.3,N
1583794535.6,286047003.1,N
1583794555.4,286047000.4,N
1583794575.2,286046999.7,N
1583794595.1,286047000.4,N
1583794596.0,286047000.4,N
1583794615.8,286046998.7,N
1583794635.7,286047001.0,N
1583794655.5,286047003.8,N
1583794675.3,286047002.6,N
1583794695.2,286047004.4,N
1583794715.0,286047004.3,N
1583794715.9,286047004.3,N
1583794735.8,286047002.5,N
1583794755.6,286047002.2,N
1583794775.4,286046998.5,N
1583794795.3,286047001.1,N
